Weather History for Ottawa International, ON

Change the Weather History Date:

Friday, September 13, 2013

  Actual Average Record
Temperature  
Mean Temperature 52 °F -  
Max Temperature 56 °F 62 °F 86 °F (2005)
Min Temperature 48 °F 43 °F 43 °F (2014)
Degree Days  
Heating Degree Days 13    
Growing Degree Days 2 (Base 50)    
Moisture  
Dew Point 45 °F    
Average Humidity 75    
Maximum Humidity 88    
Minimum Humidity 64    
Precipitation  
Precipitation 0.00 in 0.10 in - ()
Sea Level Pressure  
Sea Level Pressure 29.86 in    
Wind  
Wind Speed 14 mph ()    
Max Wind Speed 20 mph    
Max Gust Speed 28 mph    
Visibility 15.0 miles    
Events Rain    
Averages and records for this station are not official NWS values.
T = Trace of Precipitation, MM = Missing Value Source: Averaged Metar Reports

Daily Weather History Graph

Daily Weather History Graph

Search for Another Location

Airport:

Trip Planner

Search our weather history database for the weather conditions in past years. The results will help you decide how hot, cold, wet, or windy it might be!

Date:

Astronomy

Sep. 13, 2013 Rise Set
Actual Time 6:39 AM EDT 7:17 PM EDT
Civil Twilight 6:09 AM EDT 7:46 PM EDT
Nautical Twilight 5:33 AM EDT 8:21 PM EDT
Astronomical Twilight 4:57 AM EDT 8:58 PM EDT
Moon 3:16 PM EDT (9/13) No Moon Set
Length of Visible Light 13h 37m
Length of Day
12h 38m
First Quarter, 61% of the Moon is Illuminated
Sep 13
First Quarter
Sep 19
Full
Sep 26
Last Quarter
Oct 4
New
Oct 11
First Quarter

Hourly Weather History & Observations

Time (EDT) Temp. Dew Point Humidity Pressure Visibility Wind Dir Wind Speed Gust Speed Precip Events Conditions
12:00 AM 59.0 °F 55.4 °F 88% 29.71 in 15.0 mi NW 12.7 mph 20.7 mph N/A   Scattered Clouds
1:00 AM 59.0 °F 53.6 °F 82% 29.73 in 15.0 mi NNW 19.6 mph 27.6 mph N/A   Overcast
2:00 AM 56 °F 51 °F 78% 29.75 in 15 mi NNW 17.3 mph - -   Overcast
2:00 AM 57.2 °F 51.8 °F 82% 29.75 in 15.0 mi NNW 18.4 mph 25.3 mph N/A   Overcast
3:00 AM 55.4 °F 50.0 °F 82% 29.75 in 15.0 mi NW 16.1 mph 23.0 mph N/A   Overcast
4:00 AM 53.6 °F 48.2 °F 82% 29.78 in 15.0 mi NW 12.7 mph 18.4 mph N/A   Overcast
5:00 AM 51.8 °F 46.4 °F 82% 29.78 in 15.0 mi NW 16.1 mph - N/A   Overcast
6:00 AM 51.8 °F 46.4 °F 82% 29.80 in 15.0 mi NW 18.4 mph - N/A   Overcast
7:00 AM 51.8 °F 44.6 °F 76% 29.82 in 15.0 mi NW 13.8 mph - N/A   Overcast
8:00 AM 51 °F 44 °F 70% 29.84 in 15 mi NNW 18.4 mph - -   Mostly Cloudy
8:00 AM 51.8 °F 44.6 °F 76% 29.84 in 15.0 mi NNW 16.1 mph 24.2 mph N/A   Mostly Cloudy
9:00 AM 51.8 °F 44.6 °F 76% 29.85 in 15.0 mi North 17.3 mph - N/A   Overcast
10:00 AM 51.8 °F 44.6 °F 76% 29.86 in 15.0 mi North 15.0 mph 24.2 mph N/A   Mostly Cloudy
11:00 AM 53.6 °F 44.6 °F 72% 29.88 in 15.0 mi NNW 13.8 mph - N/A   Overcast
12:00 PM 53.6 °F 44.6 °F 72% 29.88 in 15.0 mi North 15.0 mph 24.2 mph N/A   Overcast
12:08 PM 53.6 °F 44.6 °F 72% 29.88 in 15.0 mi NNW 13.8 mph 21.9 mph N/A Rain Light Rain Showers
12:38 PM 53.6 °F 44.6 °F 72% 29.89 in 15.0 mi North 16.1 mph - N/A   Overcast
1:00 PM 51.8 °F 44.6 °F 76% 29.89 in 15.0 mi NW 17.3 mph 23.0 mph N/A   Overcast
2:00 PM 53 °F 44 °F 64% 29.89 in 15 mi North 17.3 mph - -   Partly Cloudy
2:00 PM 53.6 °F 44.6 °F 72% 29.89 in 15.0 mi North 15.0 mph 25.3 mph N/A   Overcast
3:00 PM 53.6 °F 44.6 °F 72% 29.89 in 15.0 mi NNW 13.8 mph 26.5 mph N/A   Overcast
4:00 PM 53.6 °F 42.8 °F 67% 29.90 in 15.0 mi NNW 17.3 mph - N/A   Overcast
5:00 PM 53.6 °F 42.8 °F 67% 29.91 in 15.0 mi North 16.1 mph - N/A   Overcast
5:28 PM 51.8 °F 42.8 °F 71% 29.92 in 15.0 mi NW 15.0 mph 21.9 mph N/A Rain Light Rain Showers
6:00 PM 51.8 °F 42.8 °F 71% 29.92 in 15.0 mi NNW 13.8 mph 20.7 mph N/A   Overcast
7:00 PM 51.8 °F 42.8 °F 71% 29.94 in 15.0 mi NW 12.7 mph 19.6 mph N/A   Overcast
8:00 PM 50.0 °F 42.8 °F 76% 29.96 in 15.0 mi NW 15.0 mph 20.7 mph N/A   Overcast
9:00 PM 50.0 °F 41.0 °F 71% 29.97 in 15.0 mi NW 17.3 mph 24.2 mph N/A   Overcast
10:00 PM 48.2 °F 41.0 °F 76% 29.98 in 15.0 mi NW 15.0 mph - N/A   Overcast
11:00 PM 48.2 °F 41.0 °F 76% 29.99 in 15.0 mi NW 15.0 mph - N/A   Overcast